Weather History for Hot Springs, VA

Change the Weather History Date:

Wednesday, January 29, 2003

  Actual Average Record
Temperature  
Mean Temperature 35 °F -  
Max Temperature 37 °F 33 °F 64 °F (2013)
Min Temperature 32 °F 19 °F -7 °F (2014)
Degree Days  
Heating Degree Days 30    
Moisture  
Dew Point 34 °F    
Average Humidity 93    
Maximum Humidity 100    
Minimum Humidity 87    
Precipitation  
Precipitation 0.00 in - - ()
Sea Level Pressure  
Sea Level Pressure 29.97 in    
Wind  
Wind Speed 18 mph (West)    
Max Wind Speed 24 mph    
Max Gust Speed 30 mph    
Visibility 1 miles    
Events      
Averages and records for this station are not official NWS values.
T = Trace of Precipitation, MM = Missing Value Source: NWS Daily Summary

Daily Weather History Graph

Daily Weather History Graph

Search for Another Location

Airport:

Trip Planner

Search our weather history database for the weather conditions in past years. The results will help you decide how hot, cold, wet, or windy it might be!

Date:

Astronomy

Jan. 29, 2003 Rise Set
Actual Time 7:26 AM EST 5:38 PM EST
Civil Twilight 6:58 AM EST 6:06 PM EST
Nautical Twilight 6:26 AM EST 6:38 PM EST
Astronomical Twilight 5:55 AM EST 7:09 PM EST
Moon 5:22 AM EST (1/29) 2:46 PM EST (1/29)
Length of Visible Light 11h 08m
Length of Day
10h 12m
Waning Crescent, 8% of the Moon is Illuminated
Jan 29
Waning Crescent
Feb 1
New
Feb 9
First Quarter
Feb 16
Full
Feb 23
Last Quarter

Hourly Weather History & Observations

Time (EST) Temp. Windchill Dew Point Humidity Pressure Visibility Wind Dir Wind Speed Gust Speed Precip Events Conditions
12:00 AM 33.8 °F 21.3 °F 30.2 °F 87% 29.99 in 0.2 mi West 24.2 mph - N/A   Overcast
12:20 AM 33.8 °F 22.5 °F 30.2 °F 87% 29.98 in 0.2 mi West 19.6 mph 28.8 mph N/A   Overcast
12:40 AM 33.8 °F 21.3 °F 30.2 °F 87% 29.98 in 0.2 mi West 24.2 mph 29.9 mph N/A   Overcast
1:00 AM 33.8 °F 21.9 °F 32.0 °F 93% 29.98 in 0.2 mi West 21.9 mph 27.6 mph N/A   Overcast
1:20 AM 33.8 °F 22.5 °F 32.0 °F 93% 29.97 in 0.2 mi West 19.6 mph 28.8 mph N/A   Overcast
1:40 AM 35.6 °F 25.2 °F 33.8 °F 93% 29.97 in 0.2 mi West 18.4 mph 26.5 mph N/A   Overcast
2:00 AM 35.6 °F 26.2 °F 32.0 °F 87% 29.96 in 0.2 mi West 15.0 mph 20.7 mph N/A   Overcast
2:20 AM 35.6 °F 26.2 °F 33.8 °F 93% 29.97 in 0.2 mi West 15.0 mph - N/A   Overcast
2:40 AM 35.6 °F 25.5 °F 33.8 °F 93% 29.97 in 0.2 mi West 17.3 mph 26.5 mph N/A   Overcast
3:00 AM 35.6 °F 25.5 °F 33.8 °F 93% 29.96 in 0.2 mi West 17.3 mph - N/A   Overcast
3:20 AM 35.6 °F 26.2 °F 32.0 °F 87% 29.95 in 0.2 mi West 15.0 mph 23.0 mph N/A   Overcast
3:40 AM 35.6 °F 24.8 °F 33.8 °F 93% 29.96 in 0.2 mi West 19.6 mph 24.2 mph N/A   Overcast
4:00 AM 35.6 °F 25.2 °F 33.8 °F 93% 29.95 in 0.2 mi West 18.4 mph 25.3 mph N/A   Overcast
4:20 AM 35.6 °F 25.2 °F 33.8 °F 93% 29.95 in 0.2 mi West 18.4 mph 25.3 mph N/A   Overcast
4:40 AM 35.6 °F 24.5 °F 33.8 °F 93% 29.95 in 0.2 mi West 20.7 mph 25.3 mph N/A   Overcast
5:00 AM 35.6 °F 25.9 °F 33.8 °F 93% 29.94 in 0.2 mi West 16.1 mph - N/A   Overcast
5:20 AM 35.6 °F 26.2 °F 33.8 °F 93% 29.93 in 0.2 mi West 15.0 mph 23.0 mph N/A   Overcast
5:40 AM 35.6 °F 25.5 °F 33.8 °F 93% 29.94 in 0.2 mi West 17.3 mph 24.2 mph N/A   Overcast
6:00 AM 35.6 °F 25.5 °F 33.8 °F 93% 29.94 in 0.2 mi West 17.3 mph 23.0 mph N/A   Overcast
6:20 AM 35.6 °F 25.2 °F 33.8 °F 93% 29.93 in 0.2 mi West 18.4 mph - N/A   Overcast
6:40 AM 35.6 °F 25.5 °F 33.8 °F 93% 29.94 in 0.2 mi West 17.3 mph 24.2 mph N/A   Overcast
7:00 AM 35.6 °F 25.2 °F 33.8 °F 93% 29.94 in 0.2 mi West 18.4 mph 23.0 mph N/A   Overcast
7:20 AM 35.6 °F 25.5 °F 33.8 °F 93% 29.94 in 0.2 mi West 17.3 mph - N/A   Overcast
7:40 AM 35.6 °F 25.2 °F 33.8 °F 93% 29.93 in 0.2 mi West 18.4 mph 24.2 mph N/A   Overcast
8:00 AM 35.6 °F 25.5 °F 33.8 °F 93% 29.93 in 0.2 mi West 17.3 mph 24.2 mph N/A   Overcast
8:20 AM 35.6 °F 24.8 °F 33.8 °F 93% 29.95 in 0.2 mi West 19.6 mph 25.3 mph N/A   Overcast
8:40 AM 35.6 °F 25.9 °F 33.8 °F 93% 29.95 in 0.2 mi West 16.1 mph - N/A   Overcast
9:00 AM 35.6 °F 25.2 °F 33.8 °F 93% 29.94 in 0.2 mi West 18.4 mph 21.9 mph N/A   Overcast
9:20 AM 35.6 °F 25.2 °F 35.6 °F 100% 29.94 in 0.2 mi West 18.4 mph 24.2 mph N/A   Overcast
9:40 AM 37.4 °F 27.2 °F 35.6 °F 93% 29.95 in 0.2 mi West 19.6 mph 27.6 mph N/A   Overcast
10:00 AM 37.4 °F 27.2 °F 35.6 °F 93% 29.95 in 0.2 mi West 19.6 mph - N/A   Overcast
10:20 AM 37.4 °F 27.2 °F 35.6 °F 93% 29.96 in 0.2 mi West 19.6 mph 25.3 mph N/A   Overcast
10:40 AM 37.4 °F 27.8 °F 35.6 °F 93% 29.96 in 0.2 mi West 17.3 mph 27.6 mph N/A   Overcast
11:00 AM 37.4 °F 26.9 °F 35.6 °F 93% 29.96 in 0.2 mi West 20.7 mph 26.5 mph N/A   Overcast
11:20 AM 37.4 °F 27.8 °F 35.6 °F 93% 29.96 in 0.2 mi West 17.3 mph 26.5 mph N/A   Overcast
11:40 AM 37.4 °F 26.9 °F 35.6 °F 93% 29.96 in 0.2 mi West 20.7 mph 25.3 mph N/A   Overcast
12:00 PM 37.4 °F 27.8 °F 35.6 °F 93% 29.95 in 0.2 mi West 17.3 mph 25.3 mph N/A   Overcast
12:20 PM 37.4 °F 27.5 °F 35.6 °F 93% 29.95 in 0.2 mi West 18.4 mph 21.9 mph N/A   Overcast
12:40 PM 37.4 °F 27.5 °F 35.6 °F 93% 29.94 in 0.2 mi West 18.4 mph 23.0 mph N/A   Overcast
1:00 PM 37.4 °F 26.6 °F 35.6 °F 93% 29.94 in 0.2 mi West 21.9 mph 26.5 mph N/A   Overcast
1:20 PM 37.4 °F 28.2 °F 35.6 °F 93% 29.94 in 0.2 mi WNW 16.1 mph 26.5 mph N/A   Overcast
1:40 PM 37.4 °F 28.5 °F 35.6 °F 93% 29.94 in 0.2 mi West 15.0 mph - N/A   Overcast
2:00 PM 37.4 °F 28.9 °F 35.6 °F 93% 29.94 in 0.2 mi WNW 13.8 mph 21.9 mph N/A   Overcast
2:20 PM 35.6 °F 26.6 °F 35.6 °F 100% 29.94 in 0.2 mi West 13.8 mph 21.9 mph N/A   Overcast
2:40 PM 35.6 °F 27.1 °F 33.8 °F 93% 29.95 in 0.2 mi West 12.7 mph 19.6 mph N/A   Overcast
3:00 PM 35.6 °F 27.1 °F 35.6 °F 100% 29.96 in 0.2 mi WNW 12.7 mph - N/A   Overcast
3:20 PM 35.6 °F 25.5 °F 35.6 °F 100% 29.97 in 0.2 mi West 17.3 mph - N/A   Overcast
3:40 PM 35.6 °F 25.9 °F 33.8 °F 93% 29.97 in 0.2 mi West 16.1 mph - N/A   Overcast
4:00 PM 35.6 °F 27.5 °F 33.8 °F 93% 29.98 in 0.2 mi West 11.5 mph - N/A   Overcast
4:20 PM 35.6 °F 27.1 °F 33.8 °F 93% 29.98 in 0.2 mi West 12.7 mph - N/A   Overcast
4:40 PM 35.6 °F 28.0 °F 33.8 °F 93% 29.99 in 0.2 mi West 10.4 mph - N/A   Overcast
5:00 PM 35.6 °F 28.0 °F 33.8 °F 93% 30.00 in 0.2 mi WNW 10.4 mph - N/A   Overcast
5:20 PM 33.8 °F 26.4 °F 33.8 °F 100% 30.02 in 0.2 mi West 9.2 mph - N/A   Overcast
5:40 PM 33.8 °F 26.4 °F 32.0 °F 93% 30.03 in 0.2 mi WNW 9.2 mph - N/A   Overcast
6:00 PM 33.8 °F 27.7 °F 32.0 °F 93% 30.05 in 0.8 mi WNW 6.9 mph - N/A   Overcast
6:20 PM 33.8 °F 27.0 °F 30.2 °F 87% 30.05 in 10.0 mi WNW 8.1 mph - N/A   Overcast
6:40 PM 33.8 °F 28.6 °F 30.2 °F 87% 30.06 in 10.0 mi NW 5.8 mph - N/A   Overcast
7:00 PM 33.8 °F 28.6 °F 30.2 °F 87% 30.06 in 10.0 mi NW 5.8 mph - N/A   Mostly Cloudy
7:20 PM 32.0 °F 24.8 °F 30.2 °F 93% 30.07 in 10.0 mi NW 8.1 mph - N/A   Mostly Cloudy
7:40 PM 32.0 °F 24.2 °F 30.2 °F 93% 30.08 in 10.0 mi NW 9.2 mph - N/A   Overcast
8:00 PM 32.0 °F 25.6 °F 30.2 °F 93% 30.08 in 10.0 mi NNW 6.9 mph - N/A   Overcast
8:20 PM 32.0 °F 23.0 °F 30.2 °F 93% 30.09 in 10.0 mi NW 11.5 mph - N/A   Overcast
8:40 PM 30.2 °F 23.4 °F 30.2 °F 100% 30.09 in 10.0 mi WNW 6.9 mph - N/A   Overcast
9:00 PM 30.2 °F 24.3 °F 28.4 °F 93% 30.09 in 10.0 mi WNW 5.8 mph - N/A   Overcast
9:20 PM 30.2 °F 26.7 °F 28.4 °F 93% 30.10 in 10.0 mi NW 3.5 mph - N/A   Overcast
9:40 PM 30.2 °F - 28.4 °F 93% 30.11 in 10.0 mi Calm Calm - N/A   Scattered Clouds
10:00 PM 30.2 °F - 28.4 °F 93% 30.11 in 10.0 mi Calm Calm - N/A   Scattered Clouds
10:20 PM 30.2 °F - 28.4 °F 93% 30.12 in 10.0 mi Calm Calm - N/A   Mostly Cloudy
10:40 PM 30.2 °F 24.3 °F 30.2 °F 100% 30.12 in 10.0 mi East 5.8 mph - N/A   Overcast
11:00 PM 30.2 °F 23.4 °F 28.4 °F 93% 30.12 in 10.0 mi ENE 6.9 mph - N/A   Overcast
11:20 PM 30.2 °F 24.3 °F 28.4 °F 93% 30.12 in 7.0 mi East 5.8 mph - N/A   Overcast
11:40 PM 30.2 °F 21.9 °F 28.4 °F 93% 30.12 in 4.0 mi East 9.2 mph - N/A   Overcast